Wind_Speed
9 9 9 10 9 8 9 10 10 10 11 11 11 11 12 12 13 13 14 15 15 15 16 16 17 18 18 18 18 18 19 19 20 21 22 24 25 25 24 25 25 25 25
9 10 10 10 9 9 10 10 11 11 12 12 13 13 13 13 14 15 15 16 16 16 16 17 18 18 18 19 19 19 20 20 21 21 22 24 24 25 25 25 25 25 25
10 10 11 11 11 11 11 11 12 13 14 14 15 14 15 15 15 15 15 15 16 17 17 17 18 18 19 19 20 20 21 21 22 23 23 24 24 24 25 25 25 25 25
10 10 11 11 11 12 12 12 13 13 14 15 15 16 16 16 16 16 16 16 16 17 18 18 18 19 19 20 20 20 21 22 23 23 23 24 24 24 25 25 25 25 26
11 11 12 12 13 13 14 14 14 14 14 15 16 16 17 17 17 18 18 18 18 18 19 19 19 19 20 21 21 21 22 23 23 23 24 24 24 25 25 25 26 26 27
12 12 13 14 15 15 15 15 16 16 16 16 16 16 16 17 18 19 19 20 20 19 20 20 20 20 21 21 22 23 23 24 24 24 24 25 25 25 26 26 27 27 28
13 14 14 15 16 17 17 17 17 17 17 17 17 18 18 18 19 19 20 19 20 20 21 21 21 22 23 23 23 24 24 25 25 25 25 25 26 27 27 28 28 28 29
15 15 16 17 18 18 18 19 19 18 19 19 18 18 18 19 20 20 21 21 20 20 20 21 22 22 23 23 24 25 25 26 27 27 27 27 28 28 29 29 29 30 31
17 18 19 19 19 19 20 20 20 20 20 20 20 19 19 20 20 20 21 21 21 21 22 22 23 23 24 24 25 26 27 28 29 29 29 29 29 30 30 31 31 32 33
20 20 20 20 20 21 21 21 21 20 20 21 21 21 21 21 21 21 21 21 21 22 23 23 23 24 24 25 26 27 28 29 30 30 30 31 31 31 32 33 33 34 34
22 22 22 21 22 21 21 22 22 22 22 22 23 23 22 23 23 22 23 23 23 23 24 24 25 26 26 27 28 29 29 30 30 30 31 31 32 33 33 34 34 35 35
23 23 22 22 22 22 22 23 23 23 23 24 24 24 24 25 24 24 25 26 25 25 26 26 27 28 28 29 29 30 30 30 31 32 32 33 33 34 35 35 36 36 35
23 23 23 23 24 23 24 24 24 24 24 24 25 25 25 25 25 26 27 27 27 27 28 28 29 29 30 30 31 31 32 32 33 33 34 34 34 35 35 36 36 36 36
26 25 25 25 25 25 25 25 25 25 25 25 26 26 26 26 27 28 28 28 28 29 30 30 30 31 32 32 32 33 33 33 33 34 34 35 35 35 36 36 37 36 36
28 28 28 28 27 27 27 27 27 27 27 27 27 27 27 28 28 29 29 29 30 30 31 31 32 33 33 33 34 34 34 34 35 35 36 36 36 36 36 36 36 36 36
31 30 30 29 28 28 28 28 28 29 29 29 28 28 28 29 29 30 31 31 32 32 32 33 33 34 34 34 35 35 35 36 36 36 36 36 36 36 36 36 35 35 35
32 32 31 31 31 31 30 30 30 30 30 30 31 31 31 31 31 32 32 33 34 34 34 34 35 35 36 36 36 36 35 35 35 35 35 35 35 35 35 35 35 35 34
34 33 33 33 33 32 32 32 32 32 32 32 32 33 33 33 33 34 34 35 35 36 36 36 36 37 37 36 36 35 35 35 35 35 35 35 35 35 35 35 34 34 34
35 34 34 34 34 33 33 33 33 33 33 33 34 34 34 34 35 35 35 36 36 37 36 36 37 37 37 36 36 35 35 35 34 34 34 35 34 34 34 34 34 34 33
36 34 34 34 34 34 34 34 34 34 34 34 35 35 35 36 37 37 37 37 37 36 36 36 37 37 37 36 36 35 35 35 35 34 34 34 33 33 33 33 33 33 33
36 35 35 36 36 35 35 35 35 35 36 36 36 36 36 37 37 37 37 38 37 36 37 37 38 37 37 37 36 35 35 35 34 34 34 34 34 33 33 33 33 33 33
36 36 36 37 37 36 35 35 36 36 35 36 36 37 37 37 38 38 38 37 37 37 37 37 38 38 37 36 35 35 35 34 34 34 34 34 33 33 33 33 33 33 33
35 35 35 36 36 36 36 36 36 36 37 38 38 37 37 37 37 37 37 37 37 36 36 36 36 35 34 34 34 33 33 33 33 33 34 33 33 33 33 33 33 33 33
34 34 35 36 36 36 36 36 36 37 37 38 37 37 37 37 36 36 35 35 35 35 34 34 34 34 34 34 34 33 33 33 33 33 33 33 33 33 33 33 33 33 33
34 35 36 35 34 34 35 35 35 35 36 36 36 36 35 35 34 34 34 34 34 33 33 33 34 34 34 34 34 33 33 32 32 32 32 33 33 33 33 33 32 32 31
34 34 35 35 34 34 34 34 34 34 34 35 35 35 34 34 34 34 34 34 34 34 34 34 34 34 34 33 33 33 32 32 32 33 33 33 33 33 33 33 32 32 32
Wind_Direction
313 313 311 310 307 302 293 290 289 288 286 281 278 279 280 282 285 287 285 281 279 279 278 278 278 279 280 281 283 284 285 286 286 285 286 287 289 291 290 290 290 291 291
312 311 308 306 305 302 301 292 289 290 286 282 281 282 282 284 286 289 287 284 280 281 281 280 281 281 281 282 284 286 287 288 288 288 288 289 291 292 292 293 293 293 291
311 311 311 309 305 301 299 296 291 290 289 285 284 283 283 285 286 287 288 287 283 281 284 284 283 284 285 284 285 286 287 288 289 289 289 290 291 292 293 294 294 294 293
308 310 313 314 312 308 302 298 296 295 293 288 285 283 282 284 284 285 286 286 285 283 284 286 285 286 286 285 286 288 288 290 291 290 289 289 290 291 292 293 293 293 293
304 308 312 314 313 310 305 300 297 296 295 291 286 285 285 284 284 284 285 284 286 286 286 285 285 286 286 287 288 289 288 289 291 290 290 290 291 292 292 292 292 293 293
304 305 307 308 309 307 303 298 296 294 295 296 292 290 290 287 286 285 285 283 283 286 286 285 285 285 286 288 288 289 288 289 289 289 290 291 292 293 294 294 294 293 293
302 304 304 306 306 303 302 299 296 295 296 297 296 293 292 290 289 289 288 287 286 287 287 286 286 286 287 286 288 288 289 289 289 290 292 293 292 292 292 293 294 294 294
298 302 302 303 303 301 299 298 297 296 297 297 296 295 296 295 292 291 289 287 286 286 287 288 288 289 289 288 290 290 289 290 291 292 292 292 292 291 291 291 292 293 293
296 299 302 301 300 300 299 296 294 294 294 295 295 296 297 297 295 293 291 288 287 288 290 291 290 290 290 290 290 290 290 291 292 292 292 291 291 291 291 292 292 293 293
295 297 299 298 299 299 298 297 293 291 291 291 292 293 295 296 295 294 295 293 290 289 290 291 292 293 293 293 293 293 293 293 292 292 292 292 292 292 292 292 292 292 293
294 295 297 295 296 297 296 297 294 290 289 290 291 291 293 294 295 294 294 293 292 291 291 291 291 291 292 292 293 294 294 293 292 292 292 292 293 293 293 292 292 292 292
293 294 295 295 295 295 296 295 294 292 289 289 290 291 291 291 293 294 294 293 292 291 291 290 289 290 291 292 293 293 292 292 292 291 292 292 292 293 292 292 292 292 292
294 295 295 294 294 294 295 294 293 292 291 290 292 292 292 291 290 290 291 291 292 292 293 292 291 292 294 294 294 293 293 292 292 292 293 293 292 293 292 292 292 292 292
289 291 293 294 293 293 292 292 291 291 290 291 293 293 293 291 290 289 289 290 291 292 293 294 294 295 296 296 296 295 295 294 294 294 294 294 293 293 293 292 293 293 293
285 288 290 291 292 292 292 291 291 290 289 289 291 292 292 292 290 288 289 290 292 293 294 295 295 296 296 296 296 295 294 294 294 295 295 294 294 293 293 293 294 294 294
283 285 287 288 289 290 290 291 290 290 289 289 289 290 290 290 290 290 290 290 291 292 293 293 295 296 296 296 297 296 295 294 295 295 295 294 294 293 293 293 293 294 295
282 283 284 285 285 286 287 288 288 288 288 287 286 287 288 288 289 290 290 290 290 292 293 293 294 295 296 297 297 296 296 295 295 295 295 295 295 294 294 294 293 294 294
281 282 282 283 283 283 284 285 286 286 286 285 284 286 287 288 288 289 290 290 290 291 292 293 295 296 296 296 297 297 297 296 296 296 296 295 295 295 294 293 292 293 293
279 280 281 282 282 282 282 282 283 284 285 285 285 286 287 287 288 289 289 290 291 292 292 294 295 296 296 296 297 297 297 297 296 297 297 296 296 295 294 293 292 292 292
277 278 280 281 282 282 282 282 282 282 283 285 286 286 286 286 286 287 289 291 291 291 292 293 294 294 295 295 295 296 297 297 297 297 297 297 296 295 294 293 292 292 292
275 277 279 280 281 282 282 281 280 281 283 284 285 286 285 286 287 288 289 290 290 290 291 292 293 293 293 293 294 294 295 296 297 297 296 296 296 296 295 294 293 293 292
274 276 278 280 280 281 281 281 281 282 283 285 285 285 286 286 287 288 289 290 290 291 291 291 291 292 291 292 294 294 295 295 296 296 297 297 296 296 295 294 293 292 292
275 277 279 280 280 280 281 281 282 282 283 285 286 286 286 287 288 288 289 291 291 290 291 291 291 291 291 293 294 295 294 295 296 296 297 296 295 295 295 294 292 292 292
276 278 279 279 279 280 281 281 282 283 284 285 285 286 288 288 288 289 289 290 290 291 290 290 291 291 292 294 295 295 295 295 296 296 297 297 296 296 295 294 293 292 292
276 277 279 280 280 281 282 283 283 284 285 285 285 287 288 287 288 288 289 290 290 290 290 290 291 293 294 295 295 295 295 295 296 297 297 297 297 296 296 295 293 292 292
276 278 279 280 280 281 282 282 283 285 286 287 286 286 287 287 288 288 289 289 290 290 290 291 292 293 294 295 295 294 295 296 297 297 297 298 298 297 296 295 293 292 292
Height
5897 5896 5895 5894 5893 5892 5891 5890 5890 5890 5889 5888 5887 5887 5886 5885 5885 5884 5883 5882 5881 5880 5880 5879 5878 5877 5876 5875 5873 5872 5871 5869 5868 5867 5865 5864 5862 5860 5858 5856 5855 5853 5851
5896 5894 5893 5892 5891 5890 5889 5888 5887 5887 5886 5885 5884 5883 5883 5882 5881 5880 5879 5878 5877 5876 5875 5874 5873 5872 5871 5870 5869 5867 5866 5864 5863 5862 5860 5858 5856 5854 5852 5850 5849 5847 5845
5894 5893 5892 5891 5889 5888 5887 5886 5885 5884 5883 5882 5881 5880 5879 5878 5877 5876 5875 5874 5873 5872 5871 5870 5869 5868 5867 5865 5864 5863 5861 5859 5858 5856 5854 5852 5850 5848 5846 5844 5842 5840 5838
5892 5891 5890 5889 5887 5886 5884 5883 5882 5881 5880 5878 5877 5876 5875 5874 5873 5872 5871 5870 5869 5868 5867 5865 5864 5863 5861 5860 5859 5857 5856 5854 5852 5850 5848 5846 5845 5842 5840 5838 5836 5834 5832
5890 5889 5888 5886 5885 5883 5882 5880 5879 5878 5876 5875 5873 5872 5871 5870 5869 5868 5866 5865 5864 5863 5861 5860 5859 5858 5856 5855 5853 5852 5850 5848 5846 5844 5842 5840 5838 5836 5834 5832 5830 5828 5825
5888 5886 5885 5884 5882 5881 5879 5877 5876 5874 5873 5871 5869 5868 5866 5865 5864 5863 5861 5860 5859 5857 5856 5855 5854 5852 5851 5849 5848 5846 5844 5842 5840 5838 5836 5834 5832 5830 5828 5825 5823 5821 5819
5885 5883 5882 5881 5879 5877 5875 5874 5872 5871 5869 5867 5865 5864 5862 5860 5859 5858 5856 5854 5853 5852 5851 5849 5848 5847 5845 5843 5841 5839 5837 5835 5834 5832 5829 5827 5825 5823 5821 5818 5816 5813 5811
5881 5879 5878 5876 5874 5873 5871 5869 5868 5866 5865 5863 5861 5859 5857 5856 5854 5852 5850 5849 5848 5846 5845 5844 5842 5840 5839 5837 5835 5833 5831 5829 5827 5825 5823 5820 5818 5816 5813 5811 5808 5806 5803
5876 5875 5873 5871 5869 5867 5866 5864 5863 5861 5860 5858 5857 5855 5853 5851 5849 5847 5845 5843 5842 5841 5839 5838 5836 5834 5832 5830 5828 5826 5824 5822 5820 5817 5815 5813 5810 5808 5805 5803 5800 5797 5795
5872 5869 5868 5866 5864 5862 5860 5859 5857 5856 5855 5853 5852 5850 5848 5846 5844 5842 5840 5838 5836 5835 5833 5831 5830 5828 5826 5824 5822 5819 5817 5814 5812 5809 5807 5804 5802 5799 5797 5794 5791 5788 5785
5866 5864 5862 5860 5859 5857 5855 5853 5852 5851 5849 5848 5846 5844 5842 5841 5839 5837 5835 5833 5831 5829 5827 5825 5823 5821 5819 5817 5814 5812 5809 5806 5803 5801 5798 5796 5793 5790 5787 5784 5782 5779 5776
5860 5858 5857 5855 5853 5851 5849 5848 5846 5845 5843 5842 5840 5838 5836 5834 5833 5831 5829 5827 5825 5823 5821 5819 5816 5814 5812 5809 5806 5803 5801 5798 5795 5792 5790 5787 5784 5781 5778 5775 5772 5769 5766
5855 5853 5851 5849 5847 5845 5844 5842 5840 5839 5837 5836 5834 5832 5829 5827 5826 5824 5822 5820 5818 5816 5814 5811 5809 5806 5804 5801 5798 5795 5792 5789 5786 5784 5781 5778 5774 5771 5768 5765 5762 5759 5756
5849 5847 5845 5843 5841 5839 5838 5836 5834 5833 5831 5829 5827 5825 5823 5821 5819 5817 5815 5813 5810 5808 5806 5803 5800 5798 5795 5792 5789 5786 5783 5780 5777 5774 5771 5768 5765 5762 5759 5756 5753 5749 5746
5842 5841 5839 5837 5835 5833 5831 5829 5827 5826 5824 5822 5820 5818 5816 5814 5811 5809 5807 5805 5802 5800 5797 5794 5792 5789 5786 5783 5779 5776 5773 5770 5767 5764 5761 5758 5755 5752 5749 5745 5742 5739 5736
5834 5833 5831 5829 5827 5826 5824 5822 5820 5818 5816 5814 5812 5810 5808 5806 5804 5801 5799 5797 5794 5791 5789 5786 5783 5779 5776 5773 5770 5767 5763 5760 5757 5754 5751 5747 5744 5741 5738 5735 5732 5729 5726
5826 5824 5823 5821 5819 5817 5816 5814 5812 5810 5808 5806 5804 5802 5800 5798 5795 5793 5790 5788 5785 5782 5779 5776 5773 5770 5767 5763 5760 5756 5753 5750 5747 5743 5740 5737 5734 5730 5728 5725 5722 5719 5716
5817 5815 5813 5812 5810 5808 5807 5805 5803 5801 5799 5797 5795 5793 5791 5789 5786 5784 5781 5778 5775 5772 5769 5766 5763 5760 5756 5753 5750 5746 5743 5740 5736 5733 5730 5727 5723 5720 5717 5714 5711 5709 5706
5807 5805 5804 5802 5800 5799 5797 5795 5794 5792 5789 5787 5785 5783 5781 5779 5777 5774 5771 5768 5765 5762 5759 5756 5753 5750 5746 5743 5740 5736 5733 5730 5727 5723 5720 5716 5713 5710 5707 5704 5702 5699 5696
5796 5795 5793 5792 5791 5789 5787 5786 5784 5782 5780 5778 5776 5773 5771 5769 5766 5763 5761 5758 5755 5752 5749 5746 5743 5739 5736 5733 5730 5727 5723 5720 5717 5714 5710 5707 5703 5700 5697 5695 5692 5689 5687
5786 5785 5783 5782 5780 5779 5777 5775 5774 5772 5770 5768 5765 5763 5761 5758 5755 5753 5750 5747 5744 5741 5739 5735 5732 5729 5726 5723 5720 5716 5713 5710 5707 5704 5700 5697 5694 5691 5688 5685 5682 5680 5677
5775 5774 5773 5771 5770 5768 5766 5765 5763 5761 5759 5757 5755 5752 5750 5747 5744 5741 5739 5736 5734 5731 5728 5725 5722 5719 5716 5713 5709 5706 5703 5700 5697 5694 5691 5687 5684 5681 5678 5675 5672 5670 5667
5764 5763 5762 5760 5759 5757 5756 5754 5752 5750 5748 5746 5744 5741 5738 5736 5733 5731 5728 5726 5723 5720 5717 5714 5711 5708 5705 5702 5699 5696 5693 5690 5687 5684 5681 5677 5674 5671 5668 5665 5662 5660 5657
5753 5752 5751 5750 5748 5747 5745 5743 5741 5739 5737 5735 5732 5730 5728 5725 5723 5720 5717 5715 5712 5710 5707 5704 5701 5698 5695 5692 5689 5686 5683 5680 5677 5674 5671 5668 5664 5661 5658 5655 5652 5650 5647
5742 5741 5740 5739 5737 5736 5734 5732 5730 5728 5726 5723 5721 5719 5717 5715 5712 5710 5707 5705 5702 5700 5697 5694 5691 5688 5685 5682 5679 5676 5673 5670 5667 5664 5661 5658 5655 5652 5648 5645 5642 5640 5637
5732 5731 5729 5728 5727 5725 5723 5721 5719 5717 5715 5713 5711 5709 5706 5704 5702 5699 5697 5695 5692 5689 5687 5684 5681 5678 5675 5672 5669 5667 5664 5661 5658 5654 5651 5648 5645 5642 5639 5636 5633 5630 5627